Radiation Dose measured at exhaust stack monitor of Fukushima Daiichi Nuclear Power Station
Date,Time,Unit 5 6 shared exhaust cylinders,Wind Direction,Wind Velocity(m/s)
2021/04/27,00:00,4.0,northwest,4.6
2021/04/27,00:10,3.9,northwest,5.1
2021/04/27,00:20,3.9,north-northwest,4.3
2021/04/27,00:30,3.9,north-northwest,4.0
2021/04/27,00:40,3.9,north-northwest,5.0
2021/04/27,00:50,3.8,northwest,4.6
2021/04/27,01:00,3.9,northwest,4.2
2021/04/27,01:10,4.0,northwest,4.8
2021/04/27,01:20,3.9,northwest,4.3
2021/04/27,01:30,3.8,northwest,4.5
2021/04/27,01:40,3.8,northwest,4.6
2021/04/27,01:50,3.8,northwest,5.1
2021/04/27,02:00,3.9,northwest,4.5
2021/04/27,02:10,3.9,northwest,5.3
2021/04/27,02:20,3.8,northwest,5.7
2021/04/27,02:30,3.9,west-northwest,6.0
2021/04/27,02:40,4.0,west-northwest,6.3
2021/04/27,02:50,3.9,northwest,6.0
2021/04/27,03:00,3.7,west-northwest,6.0
2021/04/27,03:10,3.8,west-northwest,5.9
2021/04/27,03:20,3.9,west-northwest,6.4
2021/04/27,03:30,4.1,west-northwest,6.3
2021/04/27,03:40,4.1,west-northwest,6.5
2021/04/27,03:50,3.9,west-northwest,5.9
2021/04/27,04:00,3.9,northwest,6.7
2021/04/27,04:10,4.1,northwest,7.0
2021/04/27,04:20,3.8,northwest,6.9
2021/04/27,04:30,3.8,northwest,6.7
2021/04/27,04:40,3.8,west-northwest,6.2
2021/04/27,04:50,4.0,northwest,6.0
2021/04/27,05:00,4.0,northwest,5.7
2021/04/27,05:10,3.9,northwest,5.5
2021/04/27,05:20,3.8,west-northwest,5.7
2021/04/27,05:30,4.0,west-northwest,5.8
2021/04/27,05:40,3.9,west-northwest,5.1
2021/04/27,05:50,4.0,west-northwest,5.1
2021/04/27,06:00,3.9,northwest,5.4
2021/04/27,06:10,4.0,northwest,5.2
2021/04/27,06:20,3.8,northwest,4.3
2021/04/27,06:30,4.0,northwest,4.2
2021/04/27,06:40,3.9,north-northwest,3.5
2021/04/27,06:50,4.0,north-northwest,3.6
2021/04/27,07:00,3.9,north-northwest,3.2
2021/04/27,07:10,3.9,north,2.9
2021/04/27,07:20,4.0,north,2.0
2021/04/27,07:30,3.9,north-northwest,1.9
2021/04/27,07:40,3.9,north,2.5
2021/04/27,07:50,3.8,north-northeast,2.6
2021/04/27,08:00,3.9,north-northeast,2.3
2021/04/27,08:10,3.9,northeast,3.0
2021/04/27,08:20,3.8,northeast,2.2
2021/04/27,08:30,3.9,northeast,2.9
2021/04/27,08:40,3.8,east-northeast,4.1
2021/04/27,08:50,3.7,north-northeast,3.5
2021/04/27,09:00,3.9,northeast,4.2
2021/04/27,09:10,3.9,northeast,4.7
2021/04/27,09:20,3.8,east-northeast,3.6
2021/04/27,09:30,3.8,east-northeast,4.6
2021/04/27,09:40,4.0,east-northeast,4.5
2021/04/27,09:50,3.9,northeast,4.6
2021/04/27,10:00,3.7,east-northeast,3.8
2021/04/27,10:10,3.9,east-northeast,3.9
2021/04/27,10:20,3.9,east-northeast,2.9
2021/04/27,10:30,3.9,east,2.6
2021/04/27,10:40,3.8,east-southeast,3.0
2021/04/27,10:50,3.9,east-southeast,2.3
2021/04/27,11:00,4.0,east-southeast,3.6
2021/04/27,11:10,4.1,east-southeast,2.6
2021/04/27,11:20,3.9,east-southeast,3.4
2021/04/27,11:30,3.8,east-southeast,4.1
2021/04/27,11:40,3.8,east-southeast,3.7
2021/04/27,11:50,3.8,southeast,5.3
2021/04/27,12:00,3.9,south-southeast,4.5
2021/04/27,12:10,3.9,south-southeast,4.5
2021/04/27,12:20,4.0,south-southeast,5.3
2021/04/27,12:30,4.0,southeast,4.6
2021/04/27,12:40,4.0,south-southeast,5.4
2021/04/27,12:50,3.7,south-southeast,4.6
2021/04/27,13:00,4.0,south-southeast,5.2
2021/04/27,13:10,4.0,south-southeast,5.3
2021/04/27,13:20,3.9,south-southeast,6.5
2021/04/27,13:30,3.8,south-southeast,6.0
2021/04/27,13:40,4.0,south-southeast,8.6
2021/04/27,13:50,3.9,south-southeast,7.3
2021/04/27,14:00,4.0,south-southeast,8.4
2021/04/27,14:10,3.8,south-southeast,8.7
2021/04/27,14:20,3.9,south-southeast,8.0
2021/04/27,14:30,3.9,south-southeast,8.3
2021/04/27,14:40,3.9,south-southeast,8.0
2021/04/27,14:50,3.7,south-southeast,8.5
2021/04/27,15:00,3.9,south-southeast,8.5
2021/04/27,15:10,4.0,south-southeast,9.4
2021/04/27,15:20,3.9,south-southeast,10.6
2021/04/27,15:30,4.0,south-southeast,9.4
2021/04/27,15:40,3.8,south-southeast,9.4
2021/04/27,15:50,4.0,south-southeast,10.0
2021/04/27,16:00,3.9,south,8.6
2021/04/27,16:10,3.9,south-southeast,10.2
2021/04/27,16:20,3.8,south-southeast,10.0
2021/04/27,16:30,3.9,south-southeast,10.0
2021/04/27,16:40,4.0,south-southeast,8.9
2021/04/27,16:50,4.0,south-southeast,9.7
2021/04/27,17:00,3.7,south,8.4
2021/04/27,17:10,3.8,south,8.5
2021/04/27,17:20,4.0,south,8.7
2021/04/27,17:30,3.9,south,8.5
2021/04/27,17:40,4.0,south,7.8
2021/04/27,17:50,4.0,south,7.6
2021/04/27,18:00,3.8,south,7.9
2021/04/27,18:10,3.9,south,7.3
2021/04/27,18:20,3.9,south,7.6
2021/04/27,18:30,3.9,south,8.1
2021/04/27,18:40,3.9,south,7.3
2021/04/27,18:50,3.9,south,7.6
2021/04/27,19:00,3.9,south,8.9
2021/04/27,19:10,3.9,south,9.6
2021/04/27,19:20,3.9,south,8.9
2021/04/27,19:30,3.8,south,9.1
2021/04/27,19:40,3.9,south,8.0
2021/04/27,19:50,4.0,south,7.8
2021/04/27,20:00,4.0,south,7.0
2021/04/27,20:10,3.8,south-southwest,5.5
2021/04/27,20:20,3.9,south,5.4
2021/04/27,20:30,3.9,south,4.8
2021/04/27,20:40,3.8,south,5.3
2021/04/27,20:50,3.9,south-southwest,5.7
2021/04/27,21:00,3.9,south,6.8
2021/04/27,21:10,3.9,south,5.5
2021/04/27,21:20,3.9,south,5.1
2021/04/27,21:30,3.9,south,4.6
2021/04/27,21:40,3.9,south,5.5
2021/04/27,21:50,3.9,south,5.4
2021/04/27,22:00,4.0,south,5.7
2021/04/27,22:10,4.0,south,5.1
2021/04/27,22:20,3.9,south,5.2
2021/04/27,22:30,3.9,south,5.6
2021/04/27,22:40,3.8,south,5.5
2021/04/27,22:50,3.8,south,5.2
2021/04/27,23:00,4.1,south,5.3
2021/04/27,23:10,3.9,south,4.1
2021/04/27,23:20,3.9,south,5.4
2021/04/27,23:30,4.0,south,5.9
2021/04/27,23:40,3.8,south,5.7
2021/04/27,23:50,4.0,south-southwest,5.5
